Погода в Салоу

Испания     41°04′42″N   1°08′27″E
темп.,
°C
ветер,
м/с
пор.,
м/с
влажн.,
%
обл.,
%
осадки,
мм/ч
давл.,
гПа
погр.,
м
14 апреля, ср
ср1423:00+14юз3375100 0.0 1023318
02:00+14ююз3475100 0.0 1022412
05:00+14юз4477100 0.0 1021643
08:00+13зюз338492 0.1 1021321
11:00+13ю1280100 0.0 1021235
14:00+13в4477100 0.1 1021569
17:00+14юв4478100 0.1 1020617
20:00+14юв3375100 0.3 1019671
15 апреля, чт
чт1523:00+13вюв5479100 0.2 1021548
02:00+13в4475100 0.3 1020537
05:00+13всв4471100 0.0 1019483
08:00+13в6660100 0.0 1019701
11:00+13в7763100 0.0 1020745
14:00+13в6661100 0.0 1019715
17:00+13в5561100 0.0 1018775
20:00+13вюв446195 0.0 1018730
16 апреля, пт
пт1623:00+13в336070 0.0 1018665
02:00+12сз1160100 0.0 1018370
05:00+12зсз3361100 0.0 1017479
08:00+12ссз335098 0.0 1017314
11:00+12всв3354100 0.0 1018773
14:00+12в3354100 0.0 10171075
17:00+13вюв455097 0.0 10161153
20:00+13вюв665799 0.1 10161102
17 апреля, сб
сб1723:00+12вюв4557100 1.3 10181318
02:00+12сз5355100 1.3 1017446
05:00+9сз6573100 0.3 1016785
08:00+10зсз7767100 1.1 1016419
11:00+11сз665816 0.0 1017724
14:00+13з334895 0.0 1016550
17:00+15юз554952 0.0 1014394
20:00+16з465270 0.0 1014155
18 апреля, вс
вс1823:00+15зсз810552 0.0 1016368
02:00+13ссз77600 0.0 1017397
05:00+11зсз89580 0.0 1017365
08:00+10зсз78610 0.0 1018402
11:00+12зсз34500 0.0 1019483
14:00+14ю33480 0.0 1018318
17:00+14ююв66561 0.0 1017370
20:00+14ююз44630 0.0 1018623